owner,sensor,date,latitude,longitude,vertical_datum,sea_water_practical_salinity,qcFlag 
LUMCON,ioos:station:LUMCON:101:1,2016-02-01T00:00:00Z,29.2533,-90.6633,1.35,3.93,1111122 
LUMCON,ioos:station:LUMCON:101:1,2016-02-01T00:15:00Z,29.2533,-90.6633,1.35,3.99,1111122 
LUMCON,ioos:station:LUMCON:101:1,2016-02-01T00:30:00Z,29.2533,-90.6633,1.35,4.01,1111122 
LUMCON,ioos:station:LUMCON:101:1,2016-02-01T00:45:00Z,29.2533,-90.6633,1.35,4.06,1111122 
LUMCON,ioos:station:LUMCON:101:1,2016-02-01T01:00:00Z,29.2533,-90.6633,1.34,4.09,1111122 
LUMCON,ioos:station:LUMCON:101:1,2016-02-01T01:15:00Z,29.2533,-90.6633,1.33,4.13,1111122 
LUMCON,ioos:station:LUMCON:101:1,2016-02-01T01:30:00Z,29.2533,-90.6633,1.33,4.2,1111122 
LUMCON,ioos:station:LUMCON:101:1,2016-02-01T01:45:00Z,29.2533,-90.6633,1.33,4.1,1111122 
LUMCON,ioos:station:LUMCON:101:1,2016-02-01T02:00:00Z,29.2533,-90.6633,1.33,4.06,1111122 
LUMCON,ioos:station:LUMCON:101:1,2016-02-01T02:15:00Z,29.2533,-90.6633,1.32,4.04,1111122 
LUMCON,ioos:station:LUMCON:101:1,2016-02-01T02:30:00Z,29.2533,-90.6633,1.31,4.12,1111122 
LUMCON,ioos:station:LUMCON:101:1,2016-02-01T02:45:00Z,29.2533,-90.6633,1.3,4.08,1111122 
LUMCON,ioos:station:LUMCON:101:1,2016-02-01T03:00:00Z,29.2533,-90.6633,1.31,4.04,1111122 
LUMCON,ioos:station:LUMCON:101:1,2016-02-01T03:15:00Z,29.2533,-90.6633,1.3,4.02,1111122 
LUMCON,ioos:station:LUMCON:101:1,2016-02-01T03:30:00Z,29.2533,-90.6633,1.3,3.99,1111122 
LUMCON,ioos:station:LUMCON:101:1,2016-02-01T03:45:00Z,29.2533,-90.6633,1.3,3.96,1111122 
LUMCON,ioos:station:LUMCON:101:1,2016-02-01T04:00:00Z,29.2533,-90.6633,1.29,3.93,1111122 
LUMCON,ioos:station:LUMCON:101:1,2016-02-01T04:15:00Z,29.2533,-90.6633,1.28,3.91,1111122 
LUMCON,ioos:station:LUMCON:101:1,2016-02-01T04:30:00Z,29.2533,-90.6633,1.27,3.89,1111122 
LUMCON,ioos:station:LUMCON:101:1,2016-02-01T04:45:00Z,29.2533,-90.6633,1.26,3.88,1111122 
LUMCON,ioos:station:LUMCON:101:1,2016-02-01T05:00:00Z,29.2533,-90.6633,1.26,3.86,1111122 
LUMCON,ioos:station:LUMCON:101:1,2016-02-01T05:15:00Z,29.2533,-90.6633,1.25,3.85,1111122 
LUMCON,ioos:station:LUMCON:101:1,2016-02-01T05:30:00Z,29.2533,-90.6633,1.24,3.82,1111122 
LUMCON,ioos:station:LUMCON:101:1,2016-02-01T05:45:00Z,29.2533,-90.6633,1.23,3.8,1111122 
LUMCON,ioos:station:LUMCON:101:1,2016-02-01T06:00:00Z,29.2533,-90.6633,1.22,3.78,1111122 
LUMCON,ioos:station:LUMCON:101:1,2016-02-01T06:15:00Z,29.2533,-90.6633,1.2,3.77,1111122 
LUMCON,ioos:station:LUMCON:101:1,2016-02-01T06:30:00Z,29.2533,-90.6633,1.2,3.75,1111122 
LUMCON,ioos:station:LUMCON:101:1,2016-02-01T06:45:00Z,29.2533,-90.6633,1.2,3.74,1111122 
LUMCON,ioos:station:LUMCON:101:1,2016-02-01T07:00:00Z,29.2533,-90.6633,1.2,3.72,1111122 
LUMCON,ioos:station:LUMCON:101:1,2016-02-01T07:15:00Z,29.2533,-90.6633,1.2,3.68,1111122 
LUMCON,ioos:station:LUMCON:101:1,2016-02-01T07:30:00Z,29.2533,-90.6633,1.19,3.66,1111122 
LUMCON,ioos:station:LUMCON:101:1,2016-02-01T07:45:00Z,29.2533,-90.6633,1.19,3.64,1111122 
LUMCON,ioos:station:LUMCON:101:1,2016-02-01T08:00:00Z,29.2533,-90.6633,1.18,3.62,1111122 
LUMCON,ioos:station:LUMCON:101:1,2016-02-01T08:15:00Z,29.2533,-90.6633,1.18,3.6,1111122 
LUMCON,ioos:station:LUMCON:101:1,2016-02-01T08:30:00Z,29.2533,-90.6633,1.18,3.57,1111122 
LUMCON,ioos:station:LUMCON:101:1,2016-02-01T08:45:00Z,29.2533,-90.6633,1.17,3.54,1111122 
LUMCON,ioos:station:LUMCON:101:1,2016-02-01T09:00:00Z,29.2533,-90.6633,1.16,3.52,1111122 
LUMCON,ioos:station:LUMCON:101:1,2016-02-01T09:15:00Z,29.2533,-90.6633,1.16,3.49,1111122 
LUMCON,ioos:station:LUMCON:101:1,2016-02-01T09:30:00Z,29.2533,-90.6633,1.16,3.45,1111122 
LUMCON,ioos:station:LUMCON:101:1,2016-02-01T09:45:00Z,29.2533,-90.6633,1.16,3.44,1111122 
LUMCON,ioos:station:LUMCON:101:1,2016-02-01T10:00:00Z,29.2533,-90.6633,1.16,3.42,1111122 
LUMCON,ioos:station:LUMCON:101:1,2016-02-01T10:15:00Z,29.2533,-90.6633,1.16,3.4,1111122 
LUMCON,ioos:station:LUMCON:101:1,2016-02-01T10:30:00Z,29.2533,-90.6633,1.16,3.41,1111122 
LUMCON,ioos:station:LUMCON:101:1,2016-02-01T10:45:00Z,29.2533,-90.6633,1.17,3.39,1111122 
LUMCON,ioos:station:LUMCON:101:1,2016-02-01T11:00:00Z,29.2533,-90.6633,1.18,3.39,1111122 
LUMCON,ioos:station:LUMCON:101:1,2016-02-01T11:15:00Z,29.2533,-90.6633,1.18,3.38,1111122 
LUMCON,ioos:station:LUMCON:101:1,2016-02-01T11:30:00Z,29.2533,-90.6633,1.19,3.43,1111122 
LUMCON,ioos:station:LUMCON:101:1,2016-02-01T11:45:00Z,29.2533,-90.6633,1.19,3.54,1111122 
LUMCON,ioos:station:LUMCON:101:1,2016-02-01T12:00:00Z,29.2533,-90.6633,1.19,3.55,1111122 
LUMCON,ioos:station:LUMCON:101:1,2016-02-01T12:15:00Z,29.2533,-90.6633,1.19,3.59,1111122 
LUMCON,ioos:station:LUMCON:101:1,2016-02-01T12:30:00Z,29.2533,-90.6633,1.19,3.73,1111122 
LUMCON,ioos:station:LUMCON:101:1,2016-02-01T12:45:00Z,29.2533,-90.6633,1.2,3.97,1111122 
LUMCON,ioos:station:LUMCON:101:1,2016-02-01T13:00:00Z,29.2533,-90.6633,1.2,4.33,1111122 
LUMCON,ioos:station:LUMCON:101:1,2016-02-01T13:15:00Z,29.2533,-90.6633,1.21,4.49,1111122 
LUMCON,ioos:station:LUMCON:101:1,2016-02-01T13:30:00Z,29.2533,-90.6633,1.22,4.61,1111122 
LUMCON,ioos:station:LUMCON:101:1,2016-02-01T13:45:00Z,29.2533,-90.6633,1.22,4.61,1111122 
LUMCON,ioos:station:LUMCON:101:1,2016-02-01T14:00:00Z,29.2533,-90.6633,1.22,4.85,1111122 
LUMCON,ioos:station:LUMCON:101:1,2016-02-01T14:15:00Z,29.2533,-90.6633,1.22,4.99,1111122 
LUMCON,ioos:station:LUMCON:101:1,2016-02-01T14:30:00Z,29.2533,-90.6633,1.22,5.1,1111122 
LUMCON,ioos:station:LUMCON:101:1,2016-02-01T14:45:00Z,29.2533,-90.6633,1.23,5.23,1111122 
LUMCON,ioos:station:LUMCON:101:1,2016-02-01T15:00:00Z,29.2533,-90.6633,1.24,5.42,1111122 
LUMCON,ioos:station:LUMCON:101:1,2016-02-01T15:15:00Z,29.2533,-90.6633,1.25,5.13,1111122 
LUMCON,ioos:station:LUMCON:101:1,2016-02-01T15:30:00Z,29.2533,-90.6633,1.26,5.03,1111122 
LUMCON,ioos:station:LUMCON:101:1,2016-02-01T15:45:00Z,29.2533,-90.6633,1.27,5.44,1111122 
LUMCON,ioos:station:LUMCON:101:1,2016-02-01T16:00:00Z,29.2533,-90.6633,1.26,5.57,1111122 
LUMCON,ioos:station:LUMCON:101:1,2016-02-01T16:15:00Z,29.2533,-90.6633,1.27,5.87,1111122 
LUMCON,ioos:station:LUMCON:101:1,2016-02-01T16:30:00Z,29.2533,-90.6633,1.28,5.95,1111122 
LUMCON,ioos:station:LUMCON:101:1,2016-02-01T16:45:00Z,29.2533,-90.6633,1.28,5.8,1111122 
LUMCON,ioos:station:LUMCON:101:1,2016-02-01T17:00:00Z,29.2533,-90.6633,1.28,6.11,1111122 
LUMCON,ioos:station:LUMCON:101:1,2016-02-01T17:15:00Z,29.2533,-90.6633,1.29,6.19,1111122 
LUMCON,ioos:station:LUMCON:101:1,2016-02-01T17:30:00Z,29.2533,-90.6633,1.29,6.29,1111122 
LUMCON,ioos:station:LUMCON:101:1,2016-02-01T17:45:00Z,29.2533,-90.6633,1.29,6.33,1111122 
LUMCON,ioos:station:LUMCON:101:1,2016-02-01T18:00:00Z,29.2533,-90.6633,1.29,6.36,1111122 
LUMCON,ioos:station:LUMCON:101:1,2016-02-01T18:15:00Z,29.2533,-90.6633,1.3,6.43,1111122 
LUMCON,ioos:station:LUMCON:101:1,2016-02-01T18:30:00Z,29.2533,-90.6633,1.3,6.42,1111122 
LUMCON,ioos:station:LUMCON:101:1,2016-02-01T18:45:00Z,29.2533,-90.6633,1.3,6.37,1111122 
LUMCON,ioos:station:LUMCON:101:1,2016-02-01T19:00:00Z,29.2533,-90.6633,1.31,6.24,1111122 
LUMCON,ioos:station:LUMCON:101:1,2016-02-01T19:15:00Z,29.2533,-90.6633,1.31,6.34,1111122 
LUMCON,ioos:station:LUMCON:101:1,2016-02-01T19:30:00Z,29.2533,-90.6633,1.32,6.15,1111122 
LUMCON,ioos:station:LUMCON:101:1,2016-02-01T19:45:00Z,29.2533,-90.6633,1.33,5.98,1111122 
LUMCON,ioos:station:LUMCON:101:1,2016-02-01T20:00:00Z,29.2533,-90.6633,1.33,6.12,1111122 
LUMCON,ioos:station:LUMCON:101:1,2016-02-01T20:15:00Z,29.2533,-90.6633,1.33,6.3,1111122 
LUMCON,ioos:station:LUMCON:101:1,2016-02-01T20:30:00Z,29.2533,-90.6633,1.33,6.32,1111122 
LUMCON,ioos:station:LUMCON:101:1,2016-02-01T20:45:00Z,29.2533,-90.6633,1.33,6.34,1111122 
LUMCON,ioos:station:LUMCON:101:1,2016-02-01T21:00:00Z,29.2533,-90.6633,1.33,6.32,1111122 
LUMCON,ioos:station:LUMCON:101:1,2016-02-01T21:15:00Z,29.2533,-90.6633,1.33,6.26,1111122 
LUMCON,ioos:station:LUMCON:101:1,2016-02-01T21:30:00Z,29.2533,-90.6633,1.34,6.28,1111122 
LUMCON,ioos:station:LUMCON:101:1,2016-02-01T21:45:00Z,29.2533,-90.6633,1.35,6.3,1111122 
LUMCON,ioos:station:LUMCON:101:1,2016-02-01T22:00:00Z,29.2533,-90.6633,1.35,6.27,1111122 
LUMCON,ioos:station:LUMCON:101:1,2016-02-01T22:15:00Z,29.2533,-90.6633,1.35,6.26,1111122 
LUMCON,ioos:station:LUMCON:101:1,2016-02-01T22:30:00Z,29.2533,-90.6633,1.35,6.27,1111122 
LUMCON,ioos:station:LUMCON:101:1,2016-02-01T22:45:00Z,29.2533,-90.6633,1.35,6.29,1111122 
LUMCON,ioos:station:LUMCON:101:1,2016-02-01T23:00:00Z,29.2533,-90.6633,1.36,6.18,1111122 
LUMCON,ioos:station:LUMCON:101:1,2016-02-01T23:15:00Z,29.2533,-90.6633,1.36,5.98,1111122 
LUMCON,ioos:station:LUMCON:101:1,2016-02-01T23:30:00Z,29.2533,-90.6633,1.37,5.93,1111122 
LUMCON,ioos:station:LUMCON:101:1,2016-02-01T23:45:00Z,29.2533,-90.6633,1.37,5.92,1111122 
LUMCON,ioos:station:LUMCON:101:1,2016-02-02T00:00:00Z,29.2533,-90.6633,1.37,5.93,1111122 
LUMCON,ioos:station:LUMCON:101:1,2016-02-02T00:15:00Z,29.2533,-90.6633,1.38,5.91,1111122 
LUMCON,ioos:station:LUMCON:101:1,2016-02-02T00:30:00Z,29.2533,-90.6633,1.38,5.92,1111122 
LUMCON,ioos:station:LUMCON:101:1,2016-02-02T00:45:00Z,29.2533,-90.6633,1.37,5.91,1111122 
LUMCON,ioos:station:LUMCON:101:1,2016-02-02T01:00:00Z,29.2533,-90.6633,1.37,6.04,1111122 
LUMCON,ioos:station:LUMCON:101:1,2016-02-02T01:15:00Z,29.2533,-90.6633,1.37,6.11,1111122 
LUMCON,ioos:station:LUMCON:101:1,2016-02-02T01:30:00Z,29.2533,-90.6633,1.37,6.16,1111122 
LUMCON,ioos:station:LUMCON:101:1,2016-02-02T01:45:00Z,29.2533,-90.6633,1.37,6.18,1111122 
LUMCON,ioos:station:LUMCON:101:1,2016-02-02T02:00:00Z,29.2533,-90.6633,1.37,6.2,1111122 
LUMCON,ioos:station:LUMCON:101:1,2016-02-02T02:15:00Z,29.2533,-90.6633,1.37,6.18,1111122 
LUMCON,ioos:station:LUMCON:101:1,2016-02-02T02:30:00Z,29.2533,-90.6633,1.37,6.12,1111122 
LUMCON,ioos:station:LUMCON:101:1,2016-02-02T02:45:00Z,29.2533,-90.6633,1.37,6.06,1111122 
LUMCON,ioos:station:LUMCON:101:1,2016-02-02T03:00:00Z,29.2533,-90.6633,1.36,5.99,1111122 
LUMCON,ioos:station:LUMCON:101:1,2016-02-02T03:15:00Z,29.2533,-90.6633,1.36,5.98,1111122 
LUMCON,ioos:station:LUMCON:101:1,2016-02-02T03:30:00Z,29.2533,-90.6633,1.36,5.94,1111122 
LUMCON,ioos:station:LUMCON:101:1,2016-02-02T03:45:00Z,29.2533,-90.6633,1.35,5.99,1111122 
LUMCON,ioos:station:LUMCON:101:1,2016-02-02T04:00:00Z,29.2533,-90.6633,1.35,6.02,1111122 
LUMCON,ioos:station:LUMCON:101:1,2016-02-02T04:15:00Z,29.2533,-90.6633,1.35,6.06,1111122 
LUMCON,ioos:station:LUMCON:101:1,2016-02-02T04:30:00Z,29.2533,-90.6633,1.34,6.14,1111122 
LUMCON,ioos:station:LUMCON:101:1,2016-02-02T04:45:00Z,29.2533,-90.6633,1.34,6.15,1111122 
LUMCON,ioos:station:LUMCON:101:1,2016-02-02T05:00:00Z,29.2533,-90.6633,1.33,6.0,1111122 
LUMCON,ioos:station:LUMCON:101:1,2016-02-02T05:15:00Z,29.2533,-90.6633,1.31,5.85,1111122 
LUMCON,ioos:station:LUMCON:101:1,2016-02-02T05:30:00Z,29.2533,-90.6633,1.3,5.76,1111122 
LUMCON,ioos:station:LUMCON:101:1,2016-02-02T05:45:00Z,29.2533,-90.6633,1.29,5.7,1111122 
LUMCON,ioos:station:LUMCON:101:1,2016-02-02T06:00:00Z,29.2533,-90.6633,1.28,5.64,1111122 
LUMCON,ioos:station:LUMCON:101:1,2016-02-02T06:15:00Z,29.2533,-90.6633,1.28,5.61,1111122 
LUMCON,ioos:station:LUMCON:101:1,2016-02-02T06:30:00Z,29.2533,-90.6633,1.27,5.57,1111122 
LUMCON,ioos:station:LUMCON:101:1,2016-02-02T06:45:00Z,29.2533,-90.6633,1.26,5.53,1111122 
LUMCON,ioos:station:LUMCON:101:1,2016-02-02T07:00:00Z,29.2533,-90.6633,1.25,5.46,1111122 
LUMCON,ioos:station:LUMCON:101:1,2016-02-02T07:15:00Z,29.2533,-90.6633,1.25,5.38,1111122 
LUMCON,ioos:station:LUMCON:101:1,2016-02-02T07:30:00Z,29.2533,-90.6633,1.24,5.34,1111122 
LUMCON,ioos:station:LUMCON:101:1,2016-02-02T07:45:00Z,29.2533,-90.6633,1.24,5.28,1111122 
LUMCON,ioos:station:LUMCON:101:1,2016-02-02T08:00:00Z,29.2533,-90.6633,1.24,5.21,1111122 
LUMCON,ioos:station:LUMCON:101:1,2016-02-02T08:15:00Z,29.2533,-90.6633,1.24,5.17,1111122 
LUMCON,ioos:station:LUMCON:101:1,2016-02-02T08:30:00Z,29.2533,-90.6633,1.23,5.1,1111122 
LUMCON,ioos:station:LUMCON:101:1,2016-02-02T08:45:00Z,29.2533,-90.6633,1.23,5.03,1111122 
LUMCON,ioos:station:LUMCON:101:1,2016-02-02T09:00:00Z,29.2533,-90.6633,1.22,4.96,1111122 
LUMCON,ioos:station:LUMCON:101:1,2016-02-02T09:15:00Z,29.2533,-90.6633,1.21,4.88,1111122 
LUMCON,ioos:station:LUMCON:101:1,2016-02-02T09:30:00Z,29.2533,-90.6633,1.2,4.79,1111122 
LUMCON,ioos:station:LUMCON:101:1,2016-02-02T09:45:00Z,29.2533,-90.6633,1.2,4.69,1111122 
LUMCON,ioos:station:LUMCON:101:1,2016-02-02T10:00:00Z,29.2533,-90.6633,1.2,4.65,1111122 
LUMCON,ioos:station:LUMCON:101:1,2016-02-02T10:15:00Z,29.2533,-90.6633,1.2,4.59,1111122 
LUMCON,ioos:station:LUMCON:101:1,2016-02-02T10:30:00Z,29.2533,-90.6633,1.21,4.54,1111122 
LUMCON,ioos:station:LUMCON:101:1,2016-02-02T10:45:00Z,29.2533,-90.6633,1.2,4.52,1111122 
LUMCON,ioos:station:LUMCON:101:1,2016-02-02T11:00:00Z,29.2533,-90.6633,1.2,4.5,1111122 
LUMCON,ioos:station:LUMCON:101:1,2016-02-02T11:15:00Z,29.2533,-90.6633,1.19,4.5,1111122 
LUMCON,ioos:station:LUMCON:101:1,2016-02-02T11:30:00Z,29.2533,-90.6633,1.2,4.44,1111122 
LUMCON,ioos:station:LUMCON:101:1,2016-02-02T11:45:00Z,29.2533,-90.6633,1.19,4.44,1111122 
LUMCON,ioos:station:LUMCON:101:1,2016-02-02T12:00:00Z,29.2533,-90.6633,1.2,4.4,1111122 
LUMCON,ioos:station:LUMCON:101:1,2016-02-02T12:15:00Z,29.2533,-90.6633,1.21,4.39,1111122 
LUMCON,ioos:station:LUMCON:101:1,2016-02-02T12:30:00Z,29.2533,-90.6633,1.22,4.49,1111122 
LUMCON,ioos:station:LUMCON:101:1,2016-02-02T12:45:00Z,29.2533,-90.6633,1.23,5.02,1111122 
LUMCON,ioos:station:LUMCON:101:1,2016-02-02T13:00:00Z,29.2533,-90.6633,1.24,5.25,1111122 
LUMCON,ioos:station:LUMCON:101:1,2016-02-02T13:15:00Z,29.2533,-90.6633,1.25,5.17,1111122 
LUMCON,ioos:station:LUMCON:101:1,2016-02-02T13:30:00Z,29.2533,-90.6633,1.26,5.4,1111122 
LUMCON,ioos:station:LUMCON:101:1,2016-02-02T13:45:00Z,29.2533,-90.6633,1.27,5.65,1111122 
LUMCON,ioos:station:LUMCON:101:1,2016-02-02T14:00:00Z,29.2533,-90.6633,1.27,5.75,1111122 
LUMCON,ioos:station:LUMCON:101:1,2016-02-02T14:15:00Z,29.2533,-90.6633,1.28,5.82,1111122 
LUMCON,ioos:station:LUMCON:101:1,2016-02-02T14:30:00Z,29.2533,-90.6633,1.29,6.05,1111122 
LUMCON,ioos:station:LUMCON:101:1,2016-02-02T14:45:00Z,29.2533,-90.6633,1.29,6.22,1111122 
LUMCON,ioos:station:LUMCON:101:1,2016-02-02T15:00:00Z,29.2533,-90.6633,1.3,6.35,1111122 
LUMCON,ioos:station:LUMCON:101:1,2016-02-02T15:15:00Z,29.2533,-90.6633,1.31,6.43,1111122 
LUMCON,ioos:station:LUMCON:101:1,2016-02-02T15:30:00Z,29.2533,-90.6633,1.32,6.47,1111122 
LUMCON,ioos:station:LUMCON:101:1,2016-02-02T15:45:00Z,29.2533,-90.6633,1.33,6.5,1111122 
LUMCON,ioos:station:LUMCON:101:1,2016-02-02T16:00:00Z,29.2533,-90.6633,1.35,6.53,1111122 
LUMCON,ioos:station:LUMCON:101:1,2016-02-02T16:15:00Z,29.2533,-90.6633,1.36,6.55,1111122 
LUMCON,ioos:station:LUMCON:101:1,2016-02-02T16:30:00Z,29.2533,-90.6633,1.35,6.56,1111122 
LUMCON,ioos:station:LUMCON:101:1,2016-02-02T16:45:00Z,29.2533,-90.6633,1.36,6.62,1111122 
LUMCON,ioos:station:LUMCON:101:1,2016-02-02T17:00:00Z,29.2533,-90.6633,1.36,6.61,1111122 
LUMCON,ioos:station:LUMCON:101:1,2016-02-02T17:15:00Z,29.2533,-90.6633,1.38,6.62,1111122 
LUMCON,ioos:station:LUMCON:101:1,2016-02-02T17:30:00Z,29.2533,-90.6633,1.39,6.68,1111122 
LUMCON,ioos:station:LUMCON:101:1,2016-02-02T17:45:00Z,29.2533,-90.6633,1.4,6.74,1111122 
LUMCON,ioos:station:LUMCON:101:1,2016-02-02T18:00:00Z,29.2533,-90.6633,1.42,6.79,1111122 
LUMCON,ioos:station:LUMCON:101:1,2016-02-02T18:15:00Z,29.2533,-90.6633,1.43,6.83,1111122 
LUMCON,ioos:station:LUMCON:101:1,2016-02-02T18:30:00Z,29.2533,-90.6633,1.44,6.88,1111122 
LUMCON,ioos:station:LUMCON:101:1,2016-02-02T18:45:00Z,29.2533,-90.6633,1.45,6.96,1111122 
LUMCON,ioos:station:LUMCON:101:1,2016-02-02T19:00:00Z,29.2533,-90.6633,1.46,7.03,1111122 
LUMCON,ioos:station:LUMCON:101:1,2016-02-02T19:15:00Z,29.2533,-90.6633,1.47,7.14,1111122 
LUMCON,ioos:station:LUMCON:101:1,2016-02-02T19:30:00Z,29.2533,-90.6633,1.48,7.33,1111122 
LUMCON,ioos:station:LUMCON:101:1,2016-02-02T19:45:00Z,29.2533,-90.6633,1.49,7.48,1111122 
LUMCON,ioos:station:LUMCON:101:1,2016-02-02T20:00:00Z,29.2533,-90.6633,1.5,7.58,1111122 
LUMCON,ioos:station:LUMCON:101:1,2016-02-02T20:15:00Z,29.2533,-90.6633,1.5,7.7,1111122 
LUMCON,ioos:station:LUMCON:101:1,2016-02-02T20:30:00Z,29.2533,-90.6633,1.5,7.82,1111122 
LUMCON,ioos:station:LUMCON:101:1,2016-02-02T20:45:00Z,29.2533,-90.6633,1.51,7.93,1111122 
LUMCON,ioos:station:LUMCON:101:1,2016-02-02T21:00:00Z,29.2533,-90.6633,1.52,8.06,1111122 
LUMCON,ioos:station:LUMCON:101:1,2016-02-02T21:15:00Z,29.2533,-90.6633,1.52,8.18,1111122 
LUMCON,ioos:station:LUMCON:101:1,2016-02-02T21:30:00Z,29.2533,-90.6633,1.53,8.22,1111122 
LUMCON,ioos:station:LUMCON:101:1,2016-02-02T21:45:00Z,29.2533,-90.6633,1.54,8.4,1111122 
LUMCON,ioos:station:LUMCON:101:1,2016-02-02T22:00:00Z,29.2533,-90.6633,1.53,8.46,1111122 
LUMCON,ioos:station:LUMCON:101:1,2016-02-02T22:15:00Z,29.2533,-90.6633,1.54,8.43,1111122 
LUMCON,ioos:station:LUMCON:101:1,2016-02-02T22:30:00Z,29.2533,-90.6633,1.54,8.45,1111122 
LUMCON,ioos:station:LUMCON:101:1,2016-02-02T22:45:00Z,29.2533,-90.6633,1.55,8.6,1111122 
LUMCON,ioos:station:LUMCON:101:1,2016-02-02T23:00:00Z,29.2533,-90.6633,1.56,8.75,1111122 
LUMCON,ioos:station:LUMCON:101:1,2016-02-02T23:15:00Z,29.2533,-90.6633,1.55,8.73,1111122 
LUMCON,ioos:station:LUMCON:101:1,2016-02-02T23:30:00Z,29.2533,-90.6633,1.55,8.78,1111122 
LUMCON,ioos:station:LUMCON:101:1,2016-02-02T23:45:00Z,29.2533,-90.6633,1.55,9.04,1111122 
LUMCON,ioos:station:LUMCON:101:1,2016-02-03T00:00:00Z,29.2533,-90.6633,1.54,9.24,1111122 
LUMCON,ioos:station:LUMCON:101:1,2016-02-03T00:15:00Z,29.2533,-90.6633,1.54,9.26,1111122 
LUMCON,ioos:station:LUMCON:101:1,2016-02-03T00:30:00Z,29.2533,-90.6633,1.54,9.14,1111122 
LUMCON,ioos:station:LUMCON:101:1,2016-02-03T00:45:00Z,29.2533,-90.6633,1.54,8.92,1111122 
LUMCON,ioos:station:LUMCON:101:1,2016-02-03T01:00:00Z,29.2533,-90.6633,1.54,8.96,1111122 
LUMCON,ioos:station:LUMCON:101:1,2016-02-03T01:15:00Z,29.2533,-90.6633,1.54,9.12,1111122 
LUMCON,ioos:station:LUMCON:101:1,2016-02-03T01:30:00Z,29.2533,-90.6633,1.54,9.25,1111122 
LUMCON,ioos:station:LUMCON:101:1,2016-02-03T01:45:00Z,29.2533,-90.6633,1.54,9.39,1111122 
LUMCON,ioos:station:LUMCON:101:1,2016-02-03T02:00:00Z,29.2533,-90.6633,1.54,9.5,1111122 
LUMCON,ioos:station:LUMCON:101:1,2016-02-03T02:15:00Z,29.2533,-90.6633,1.53,9.63,1111122 
LUMCON,ioos:station:LUMCON:101:1,2016-02-03T02:30:00Z,29.2533,-90.6633,1.53,9.65,1111122 
LUMCON,ioos:station:LUMCON:101:1,2016-02-03T02:45:00Z,29.2533,-90.6633,1.51,9.55,1111122 
LUMCON,ioos:station:LUMCON:101:1,2016-02-03T03:00:00Z,29.2533,-90.6633,1.5,9.47,1111122 
LUMCON,ioos:station:LUMCON:101:1,2016-02-03T03:15:00Z,29.2533,-90.6633,1.49,8.9,1111122 
LUMCON,ioos:station:LUMCON:101:1,2016-02-03T03:30:00Z,29.2533,-90.6633,1.48,8.58,1111122 
LUMCON,ioos:station:LUMCON:101:1,2016-02-03T03:45:00Z,29.2533,-90.6633,1.47,8.42,1111122 
LUMCON,ioos:station:LUMCON:101:1,2016-02-03T04:00:00Z,29.2533,-90.6633,1.45,8.34,1111122 
LUMCON,ioos:station:LUMCON:101:1,2016-02-03T04:15:00Z,29.2533,-90.6633,1.44,8.29,1111122 
LUMCON,ioos:station:LUMCON:101:1,2016-02-03T04:30:00Z,29.2533,-90.6633,1.43,8.22,1111122 
LUMCON,ioos:station:LUMCON:101:1,2016-02-03T04:45:00Z,29.2533,-90.6633,1.42,8.1,1111122 
LUMCON,ioos:station:LUMCON:101:1,2016-02-03T05:00:00Z,29.2533,-90.6633,1.41,7.97,1111122 
LUMCON,ioos:station:LUMCON:101:1,2016-02-03T05:15:00Z,29.2533,-90.6633,1.4,7.81,1111122 
LUMCON,ioos:station:LUMCON:101:1,2016-02-03T05:30:00Z,29.2533,-90.6633,1.39,7.68,1111122 
LUMCON,ioos:station:LUMCON:101:1,2016-02-03T05:45:00Z,29.2533,-90.6633,1.38,7.55,1111122 
LUMCON,ioos:station:LUMCON:101:1,2016-02-03T06:00:00Z,29.2533,-90.6633,1.37,7.39,1111122 
LUMCON,ioos:station:LUMCON:101:1,2016-02-03T06:15:00Z,29.2533,-90.6633,1.36,7.31,1111122 
LUMCON,ioos:station:LUMCON:101:1,2016-02-03T06:30:00Z,29.2533,-90.6633,1.36,7.19,1111122 
LUMCON,ioos:station:LUMCON:101:1,2016-02-03T06:45:00Z,29.2533,-90.6633,1.36,7.08,1111122 
LUMCON,ioos:station:LUMCON:101:1,2016-02-03T07:00:00Z,29.2533,-90.6633,1.35,6.93,1111122 
LUMCON,ioos:station:LUMCON:101:1,2016-02-03T07:15:00Z,29.2533,-90.6633,1.35,6.6,1111122 
LUMCON,ioos:station:LUMCON:101:1,2016-02-03T07:30:00Z,29.2533,-90.6633,1.34,6.34,1111122 
LUMCON,ioos:station:LUMCON:101:1,2016-02-03T07:45:00Z,29.2533,-90.6633,1.31,5.96,1111122 
LUMCON,ioos:station:LUMCON:101:1,2016-02-03T08:00:00Z,29.2533,-90.6633,1.27,5.66,1111122 
LUMCON,ioos:station:LUMCON:101:1,2016-02-03T08:15:00Z,29.2533,-90.6633,1.26,5.53,1111122 
LUMCON,ioos:station:LUMCON:101:1,2016-02-03T08:30:00Z,29.2533,-90.6633,1.24,5.51,1111122 
LUMCON,ioos:station:LUMCON:101:1,2016-02-03T08:45:00Z,29.2533,-90.6633,1.23,5.38,1111122 
LUMCON,ioos:station:LUMCON:101:1,2016-02-03T09:00:00Z,29.2533,-90.6633,1.22,5.22,1111122 
LUMCON,ioos:station:LUMCON:101:1,2016-02-03T09:15:00Z,29.2533,-90.6633,1.23,5.07,1111122 
LUMCON,ioos:station:LUMCON:101:1,2016-02-03T09:30:00Z,29.2533,-90.6633,1.23,4.98,1111122 
LUMCON,ioos:station:LUMCON:101:1,2016-02-03T09:45:00Z,29.2533,-90.6633,1.21,4.9,1111122 
LUMCON,ioos:station:LUMCON:101:1,2016-02-03T10:00:00Z,29.2533,-90.6633,1.19,4.83,1111122 
LUMCON,ioos:station:LUMCON:101:1,2016-02-03T10:15:00Z,29.2533,-90.6633,1.16,4.79,1111122 
LUMCON,ioos:station:LUMCON:101:1,2016-02-03T10:30:00Z,29.2533,-90.6633,1.14,4.7,1111122 
LUMCON,ioos:station:LUMCON:101:1,2016-02-03T10:45:00Z,29.2533,-90.6633,1.12,4.66,1111122 
LUMCON,ioos:station:LUMCON:101:1,2016-02-03T11:00:00Z,29.2533,-90.6633,1.11,4.63,1111122 
LUMCON,ioos:station:LUMCON:101:1,2016-02-03T11:15:00Z,29.2533,-90.6633,1.08,4.58,1111122 
LUMCON,ioos:station:LUMCON:101:1,2016-02-03T11:30:00Z,29.2533,-90.6633,1.07,4.57,1111122 
LUMCON,ioos:station:LUMCON:101:1,2016-02-03T11:45:00Z,29.2533,-90.6633,1.06,4.5,1111122 
LUMCON,ioos:station:LUMCON:101:1,2016-02-03T12:00:00Z,29.2533,-90.6633,1.06,4.48,1111122 
LUMCON,ioos:station:LUMCON:101:1,2016-02-03T12:15:00Z,29.2533,-90.6633,1.07,4.44,1111122 
LUMCON,ioos:station:LUMCON:101:1,2016-02-03T12:30:00Z,29.2533,-90.6633,1.1,4.42,1111122 
LUMCON,ioos:station:LUMCON:101:1,2016-02-03T12:45:00Z,29.2533,-90.6633,1.12,4.42,1111122 
LUMCON,ioos:station:LUMCON:101:1,2016-02-03T13:00:00Z,29.2533,-90.6633,1.15,4.39,1111122 
LUMCON,ioos:station:LUMCON:101:1,2016-02-03T13:15:00Z,29.2533,-90.6633,1.16,4.35,1111122 
LUMCON,ioos:station:LUMCON:101:1,2016-02-03T13:30:00Z,29.2533,-90.6633,1.17,4.35,1111122 
LUMCON,ioos:station:LUMCON:101:1,2016-02-03T13:45:00Z,29.2533,-90.6633,1.16,4.35,1111122 
LUMCON,ioos:station:LUMCON:101:1,2016-02-03T14:00:00Z,29.2533,-90.6633,1.16,4.34,1111122 
LUMCON,ioos:station:LUMCON:101:1,2016-02-03T14:15:00Z,29.2533,-90.6633,1.14,4.39,1111122 
LUMCON,ioos:station:LUMCON:101:1,2016-02-03T14:30:00Z,29.2533,-90.6633,1.12,4.37,1111122 
LUMCON,ioos:station:LUMCON:101:1,2016-02-03T14:45:00Z,29.2533,-90.6633,1.11,4.33,1111122 
LUMCON,ioos:station:LUMCON:101:1,2016-02-03T15:00:00Z,29.2533,-90.6633,1.13,4.3,1111122 
LUMCON,ioos:station:LUMCON:101:1,2016-02-03T15:15:00Z,29.2533,-90.6633,1.15,4.24,1111122 
LUMCON,ioos:station:LUMCON:101:1,2016-02-03T15:30:00Z,29.2533,-90.6633,1.17,4.21,1111122 
LUMCON,ioos:station:LUMCON:101:1,2016-02-03T15:45:00Z,29.2533,-90.6633,1.18,4.24,1111122 
LUMCON,ioos:station:LUMCON:101:1,2016-02-03T16:00:00Z,29.2533,-90.6633,1.19,4.26,1111122 
LUMCON,ioos:station:LUMCON:101:1,2016-02-03T16:15:00Z,29.2533,-90.6633,1.17,4.55,1111122 
LUMCON,ioos:station:LUMCON:101:1,2016-02-03T16:30:00Z,29.2533,-90.6633,1.16,4.62,1111122 
LUMCON,ioos:station:LUMCON:101:1,2016-02-03T16:45:00Z,29.2533,-90.6633,1.17,4.58,1111122 
LUMCON,ioos:station:LUMCON:101:1,2016-02-03T17:00:00Z,29.2533,-90.6633,1.19,5.22,1111122 
LUMCON,ioos:station:LUMCON:101:1,2016-02-03T17:15:00Z,29.2533,-90.6633,1.2,5.18,1111122 
LUMCON,ioos:station:LUMCON:101:1,2016-02-03T17:30:00Z,29.2533,-90.6633,1.23,5.04,1111122 
LUMCON,ioos:station:LUMCON:101:1,2016-02-03T17:45:00Z,29.2533,-90.6633,1.24,5.11,1111122 
LUMCON,ioos:station:LUMCON:101:1,2016-02-03T18:00:00Z,29.2533,-90.6633,1.25,5.33,1111122 
LUMCON,ioos:station:LUMCON:101:1,2016-02-03T18:15:00Z,29.2533,-90.6633,1.26,5.43,1111122 